Location: Brunembert
(50.7122°N, 1.8935°E)
Time: 03:53:39
(UTC+00:00)

Cosmos 841 Rocket - Pass Details

Date: 22 April 2021
Orbit: 747 x 772 km, 74.0° (Epoch: 06 May)

Event Time Altitude Azimuth Distance (km) Brightness Sun altitude
Rises 22:28:16 0° 331° (NNW) 3,237 8.1 -24.3°
Reaches altitude 10° 22:30:45 10° 325° (NW) 2,303 7.0 -24.4°
Maximum altitude 22:35:40 44° 255° (WSW) 1,047 4.2 -24.7°
Enters shadow 22:36:20 41° 234° (SW) 1,082 4.1 -24.7°
